Location: Groß Eilstorf
(52.8200°N, 9.4552°E)
Time: 07:21:37
(UTC+00:00)

Cosmos 2082 Rocket - Pass Details

Date: 15 May 2026
Orbit: 832 x 852 km, 71.0° (Epoch: 5 June)

Event Time Altitude Azimuth Distance (km) Brightness Sun altitude
Rises 20:39:15 0° 228° (SW) 3,413 5.3 -10.3°
Reaches altitude 10° 20:41:46 10° 234° (SW) 2,480 4.7 -10.5°
Maximum altitude 20:47:18 50° 310° (NW) 1,073 3.2 -11.0°
Drops below altitude 10° 20:52:52 10° 26° (NNE) 2,487 5.0 -11.5°
Sets 20:55:25 0° 31° (NNE) 3,423 5.7 -11.8°
